weather.gov     
National Weather Service

Terminal Aerodrome Forecast
NWS Homepage
This page is being discontinued on March 12, 2014.
The same data is available at this site. Please update your bookmarks.
Thank you, and we apologize for the inconvenience.
Please send an email to SR-SRH.Webmaster@noaa.gov with any concerns.


Current Version
Previous Version:    01  02  03  04  05  06  07  08  09  10  11  12  13  14  15  16  17  18  19  20  21  22  23  24  25  26  27  28  29  30  
   31  32  33  34  35  36  37  
[Printable]
788
FTUS45 KMSO 251736
TAFMSO
TAF
KMSO 251736Z 2518/2618 32005KT 3SM -RA BR SCT003 OVC020
     FM260000 VRB03KT 2SM -SNRA BR SCT003 OVC010
     FM261000 VRB04KT 3SM -RA BR SCT003 OVC010
     FM261300 VRB04KT 5SM BR VCSH SCT015 OVC030=




788
FTUS45 KMSO 251736
TAFMSO
TAF
KMSO 251736Z 2518/2618 32005KT 3SM -RA BR SCT003 OVC020
     FM260000 VRB03KT 2SM -SNRA BR SCT003 OVC010
     FM261000 VRB04KT 3SM -RA BR SCT003 OVC010
     FM261300 VRB04KT 5SM BR VCSH SCT015 OVC030=


U.S. Dept. of Commerce
NOAA National Weather Service
1325 East West Highway
Silver Spring, MD 20910
E-mail: w-nws.webmaster@noaa.gov
Page last modified: May 16, 2007
NATIONAL WEATHER SERVICE: for Safety, for Work, for Fun - FOR LIFE